Temp
78 78 80 79 78 78 77 73 72 72 72 73 73 74 73 72 72 73 74 73 73 71 75 77 74 77 74 77 74 74 75 74 75 75 75 75 74 74 74 74 73 73 73 73 73 72 72 72 72 72 73 73 73 76 81 85 85 86 87 86 83 79
78 80 79 78 78 77 77 75 78 76 76 76 74 74 75 77 76 79 74 75 74 75 75 74 74 74 77 77 75 74 75 75 75 74 74 74 74 73 74 73 73 73 72 73 72 75 75 73 71 72 72 72 75 80 83 85 84 86 87 86 80 76
79 79 79 80 79 78 78 77 79 78 78 76 76 76 78 77 78 77 78 79 74 73 77 74 76 77 76 74 75 74 74 75 74 74 73 74 74 73 73 73 73 73 72 71 75 78 79 80 78 73 73 75 78 83 82 84 83 86 86 84 80 74
88 78 76 77 76 77 78 78 79 78 77 76 76 76 77 76 78 77 75 74 72 76 77 74 75 74 74 75 76 74 74 74 74 74 74 75 74 74 73 72 73 73 73 77 80 80 81 82 80 79 80 81 82 83 82 82 84 86 86 84 80 73
91 88 80 73 74 76 77 77 78 79 78 78 79 76 78 76 77 78 80 78 79 75 75 76 74 74 76 77 78 77 77 78 77 78 74 78 76 77 75 77 76 75 79 80 82 81 80 80 81 82 82 83 84 84 84 84 84 87 87 79 76 73
91 91 87 85 78 73 77 74 73 74 75 76 77 77 79 78 77 76 77 79 78 74 74 75 76 76 75 75 76 77 77 79 79 77 77 79 79 75 78 79 78 78 79 80 79 79 79 77 81 82 82 82 82 82 84 86 86 84 86 79 76 73
91 89 88 90 89 82 73 74 72 71 73 72 72 73 74 75 75 75 77 77 73 73 72 73 75 75 74 73 74 76 77 76 79 78 79 80 78 78 79 79 78 79 80 80 81 82 79 79 79 82 83 85 84 84 84 85 84 83 85 80 76 72
91 89 87 90 88 87 86 81 74 73 75 72 71 72 72 75 76 74 77 78 73 71 72 71 73 73 74 72 72 75 76 76 79 80 74 80 80 79 80 79 78 81 81 81 82 82 81 81 80 79 83 83 84 84 84 85 84 85 85 81 78 73
90 89 88 88 87 88 87 85 84 80 78 79 78 75 71 73 75 76 76 78 78 73 71 74 73 73 73 71 69 73 77 75 76 74 71 72 76 77 80 81 80 81 80 81 82 82 84 83 80 80 81 83 83 84 83 83 83 84 85 82 79 75
89 90 88 88 85 85 84 84 85 83 83 79 80 76 79 76 77 76 77 78 78 78 75 74 75 75 71 72 72 74 75 75 77 70 71 70 73 77 78 80 81 80 82 81 82 82 82 83 82 80 82 83 83 83 83 82 82 84 84 83 80 76
90 86 89 88 86 84 84 84 86 83 83 82 79 81 81 79 78 78 75 77 77 77 77 76 76 75 78 77 75 76 73 74 72 70 71 70 75 78 80 81 80 80 80 81 82 83 82 81 84 85 83 85 85 84 84 83 85 85 84 82 82 77
88 85 85 88 84 84 84 86 85 84 81 82 80 81 82 82 79 79 78 80 74 76 76 77 76 75 73 72 73 72 74 74 75 71 71 70 77 79 81 82 80 78 76 71 79 81 81 80 82 84 85 85 86 85 85 84 84 86 85 84 84 81
87 83 84 84 85 84 84 85 83 83 81 81 81 81 81 81 80 76 76 80 79 77 77 78 75 74 73 73 69 69 73 72 74 75 73 73 77 78 78 78 77 78 75 74 75 78 82 79 80 82 84 86 85 86 86 86 83 83 84 84 84 83
84 84 83 85 83 85 83 83 84 84 83 81 80 80 81 80 80 79 78 79 79 78 78 78 78 74 75 73 74 73 71 69 72 72 71 73 75 77 75 75 75 73 74 74 73 75 76 78 80 82 81 83 83 82 85 87 85 84 84 85 85 83
82 83 82 82 83 82 83 85 85 84 82 82 82 80 78 79 79 80 78 79 76 76 78 79 77 73 70 72 73 72 74 71 71 73 74 73 73 75 76 75 75 74 74 75 76 76 77 77 79 80 80 80 81 83 81 83 86 85 85 83 83 84
80 80 81 80 81 81 81 82 83 82 82 82 83 83 80 79 80 75 78 76 77 78 78 78 78 79 73 74 72 72 72 69 71 71 71 71 70 73 76 75 75 77 74 76 77 76 76 76 77 78 79 78 79 79 80 82 82 84 86 84 84 83
79 80 80 80 80 80 81 82 82 81 82 82 83 83 83 81 80 81 78 76 77 77 77 77 77 76 75 73 73 70 76 74 71 68 70 68 68 72 75 76 73 75 77 75 78 78 77 75 74 75 78 79 78 78 78 79 80 81 85 83 83 85
80 80 79 79 79 80 81 81 82 82 81 82 82 83 84 84 82 81 81 77 77 77 75 76 75 76 74 72 71 71 74 75 75 72 67 66 67 68 66 72 73 72 76 76 78 79 77 76 75 74 73 75 75 78 78 78 80 80 81 82 82 83
79 79 78 79 79 79 79 80 80 80 80 80 81 81 82 81 80 80 79 79 79 78 75 73 73 74 73 73 72 69 73 73 75 74 72 69 69 68 67 73 71 73 75 76 66 67 72 72 73 74 73 73 73 75 78 79 77 79 81 81 83 83
79 79 79 78 79 80 80 80 79 80 80 80 81 80 80 81 80 79 79 79 79 78 80 79 78 78 77 73 70 71 71 72 73 74 74 71 69 68 66 67 72 71 71 73 72 71 69 70 71 70 67 69 71 72 75 77 78 78 78 80 80 82
78 78 78 79 79 80 79 79 79 79 78 78 79 78 79 79 79 79 79 80 80 80 79 79 80 79 77 77 77 73 72 72 74 73 71 70 69 69 69 69 66 65 68 71 72 72 74 74 70 69 69 68 67 70 70 72 75 77 78 78 80 81
78 78 79 79 80 80 80 81 78 79 80 80 80 80 78 78 77 77 77 77 77 78 78 78 78 78 78 79 78 77 75 74 73 71 71 70 69 68 68 66 66 64 69 71 69 72 69 70 64 66 64 64 67 67 70 71 73 77 77 75 77 78
78 78 79 79 80 79 80 79 80 79 81 80 80 79 80 79 79 78 76 77 77 77 77 78 77 77 77 78 78 77 76 76 76 75 71 68 68 68 68 65 66 65 68 67 68 67 65 67 65 64 63 64 63 62 65 67 73 75 75 75 75 77
78 79 79 79 80 79 79 79 79 79 79 79 77 77 77 77 77 77 76 77 77 76 77 78 79 79 79 78 77 77 77 76 76 75 73 69 71 69 71 68 66 67 67 63 64 65 66 66 63 63 61 62 61 62 60 63 65 70 76 73 72 72
78 78 79 78 79 78 77 77 77 77 77 75 77 77 76 76 76 76 76 75 75 77 77 77 77 78 79 77 78 77 77 76 75 75 76 74 71 73 71 71 72 69 66 65 63 65 67 67 65 66 64 61 61 59 60 61 63 65 69 71 70 70
79 79 78 78 78 77 76 75 74 73 72 73 72 73 73 73 74 75 75 75 77 77 76 76 77 77 78 77 76 77 77 78 75 75 75 76 77 76 75 72 74 73 65 67 67 63 62 65 65 65 66 65 64 61 60 61 61 58 66 68 68 68
79 79 78 78 77 77 76 76 75 75 75 74 73 74 76 76 75 76 76 75 75 75 76 75 75 76 76 76 76 76 76 77 78 76 76 75 74 75 78 78 77 75 74 71 70 67 65 64 65 66 67 67 67 66 65 61 60 60 58 63 65 63
79 79 78 77 77 77 76 76 75 75 76 76 75 73 74 75 76 76 75 75 75 75 76 77 76 77 76 76 76 75 76 76 77 78 78 77 75 76 75 76 73 74 75 74 72 67 66 67 65 63 67 66 66 67 69 71 70 66 61 58 60 64
78 78 78 77 76 77 77 76 75 76 75 77 76 75 76 76 76 75 74 75 75 76 75 76 76 75 76 76 76 75 75 75 75 76 78 77 75 75 73 72 72 72 72 72 72 72 72 69 69 67 68 68 69 69 69 68 71 71 60 62 60 60
78 78 77 76 76 76 77 76 75 76 75 76 76 76 77 75 74 74 73 73 74 74 74 74 74 76 75 76 75 75 75 74 74 75 75 74 73 73 72 72 72 71 72 71 72 71 70 71 72 71 71 70 68 70 70 70 66 66 69 66 62 65
78 78 77 76 76 76 77 77 76 76 76 75 75 75 74 73 74 73 73 73 74 74 74 74 74 73 74 75 74 75 74 74 74 74 75 75 74 74 73 72 72 72 71 71 71 70 70 70 71 71 71 72 71 69 68 67 67 68 67 66 67 68
77 77 77 77 76 76 77 76 77 76 76 76 75 74 73 73 73 73 73 72 74 74 73 73 73 73 73 73 73 73 73 73 73 73 73 74 74 74 74 74 73 72 71 71 71 71 70 69 70 70 70 71 70 70 70 69 69 68 67 67 67 67
76 77 76 77 76 76 76 76 76 76 76 76 75 75 75 74 74 74 74 74 73 73 73 72 72 72 72 72 73 72 72 73 72 72 73 74 73 73 74 73 72 71 71 70 70 69 69 67 68 68 69 70 72 71 70 70 70 69 68 68 67 66
76 77 77 76 76 75 76 76 77 77 76 76 75 75 75 75 75 76 76 75 74 74 73 72 72 72 72 73 73 73 73 73 73 73 72 72 72 73 74 75 72 71 71 70 70 69 69 68 68 68 69 70 69 71 70 70 69 68 68 67 67 66
76 76 77 76 76 75 76 76 77 77 77 77 76 76 77 77 75 76 76 75 75 76 75 74 74 73 73 73 73 73 73 72 72 72 72 72 72 72 72 73 72 71 71 71 70 69 68 68 67 67 67 68 69 70 69 71 70 69 70 69 67 67
77 76 77 76 76 76 76 77 77 76 76 77 77 77 77 78 77 76 76 76 75 76 76 75 75 74 73 73 72 72 72 72 72 72 72 72 72 73 72 71 71 70 69 71 69 69 69 69 67 67 67 68 70 70 70 70 70 70 69 68 67 68
77 78 77 76 76 76 76 76 76 76 77 76 77 76 76 77 76 76 76 76 76 76 76 76 75 74 73 74 73 72 72 72 71 71 72 72 72 72 71 71 70 69 69 71 70 69 69 69 68 68 68 67 68 70 70 69 70 69 68 68 68 68
MSLP
1013.09 1013.01 1013.05 1013.17 1013.45 1013.61 1013.89 1014.21 1014.45 1014.57 1014.73 1014.81 1014.93 1015.09 1015.25 1015.37 1015.49 1015.57 1015.69 1015.85 1016.05 1016.45 1016.37 1016.17 1016.49 1016.41 1016.61 1016.49 1016.53 1016.57 1016.65 1016.73 1016.77 1016.89 1016.93 1017.01 1017.09 1017.13 1017.21 1017.29 1017.37 1017.53 1017.61 1017.69 1017.73 1017.93 1018.01 1018.05 1018.01 1018.01 1018.05 1018.09 1018.05 1017.97 1017.45 1016.97 1016.85 1016.69 1016.73 1017.21 1017.45 1018.21
1012.93 1013.01 1013.13 1013.33 1013.45 1013.65 1013.97 1014.25 1014.17 1014.45 1014.61 1014.81 1015.05 1015.13 1015.21 1015.17 1015.33 1015.29 1015.69 1015.89 1016.17 1016.25 1016.21 1016.29 1016.57 1016.61 1016.45 1016.37 1016.57 1016.61 1016.61 1016.69 1016.81 1016.97 1016.97 1017.01 1017.09 1017.13 1017.21 1017.29 1017.41 1017.49 1017.61 1017.69 1017.73 1017.77 1017.89 1017.97 1018.01 1017.97 1017.97 1018.01 1018.01 1017.57 1017.17 1016.93 1017.09 1016.81 1016.81 1016.97 1017.73 1018.33
1012.65 1013.13 1013.29 1013.21 1013.37 1013.53 1013.93 1014.17 1014.17 1014.33 1014.45 1014.69 1014.93 1015.09 1015.09 1015.21 1015.21 1015.37 1015.53 1015.73 1016.25 1016.13 1016.05 1016.09 1016.17 1016.29 1016.29 1016.53 1016.57 1016.57 1016.49 1016.61 1016.77 1016.85 1016.93 1017.01 1017.09 1017.13 1017.25 1017.33 1017.37 1017.41 1017.53 1017.65 1017.69 1017.53 1017.41 1017.41 1017.61 1017.85 1017.85 1017.85 1017.65 1017.17 1017.25 1017.09 1017.09 1016.69 1016.89 1017.01 1017.81 1018.45
1011.77 1013.25 1013.77 1013.81 1013.89 1013.73 1013.77 1013.97 1013.97 1014.13 1014.37 1014.61 1014.81 1015.05 1015.13 1015.09 1015.09 1015.33 1015.61 1015.89 1016.13 1016.17 1015.93 1016.17 1016.37 1016.53 1016.53 1016.57 1016.37 1016.49 1016.53 1016.61 1016.69 1016.77 1016.81 1016.89 1017.01 1017.09 1017.21 1017.33 1017.37 1017.41 1017.49 1017.41 1017.25 1017.21 1017.05 1016.81 1017.09 1017.33 1017.33 1017.21 1017.09 1017.01 1017.21 1017.25 1017.05 1016.77 1016.69 1017.17 1017.97 1018.53
1011.25 1011.81 1013.17 1014.29 1014.45 1014.33 1014.05 1014.01 1014.01 1014.05 1014.21 1014.41 1014.49 1014.93 1014.85 1015.21 1015.25 1015.25 1015.13 1015.49 1015.53 1016.05 1016.17 1016.33 1016.53 1016.65 1016.37 1016.17 1016.01 1016.17 1016.37 1016.45 1016.49 1016.53 1016.77 1016.69 1016.93 1017.01 1017.05 1017.13 1017.21 1017.29 1017.05 1016.97 1016.93 1017.01 1017.05 1016.93 1016.77 1016.89 1016.85 1016.81 1016.77 1016.89 1016.93 1016.93 1016.93 1016.69 1016.61 1017.53 1018.17 1018.49
1011.09 1011.37 1011.93 1012.53 1013.57 1014.57 1014.33 1014.41 1014.41 1014.29 1014.37 1014.61 1014.77 1014.81 1014.81 1014.97 1014.93 1015.13 1015.29 1015.25 1015.41 1016.29 1016.29 1016.25 1016.21 1016.41 1016.25 1016.09 1016.05 1016.09 1016.25 1016.17 1016.17 1016.53 1016.57 1016.45 1016.57 1017.09 1016.89 1016.89 1016.89 1016.93 1016.85 1016.77 1016.89 1017.01 1017.05 1017.25 1016.89 1016.85 1016.77 1016.77 1016.93 1016.97 1016.85 1016.69 1016.73 1016.89 1016.73 1017.49 1018.09 1018.29
1011.13 1011.45 1011.81 1011.73 1012.05 1013.09 1014.53 1014.57 1014.57 1014.57 1014.53 1014.69 1014.77 1014.77 1014.97 1014.97 1014.93 1015.05 1015.21 1015.37 1015.81 1016.09 1016.69 1016.57 1016.49 1016.37 1016.29 1016.21 1016.33 1016.25 1016.13 1016.33 1016.09 1016.09 1016.05 1016.17 1016.41 1016.49 1016.53 1016.53 1016.69 1016.69 1016.65 1016.69 1016.65 1016.77 1017.05 1017.05 1017.01 1016.77 1016.57 1016.49 1016.69 1016.69 1016.69 1016.73 1016.85 1016.93 1016.85 1017.45 1017.93 1018.21
1010.97 1011.49 1011.89 1011.57 1011.97 1012.29 1012.65 1013.45 1014.45 1014.89 1014.57 1014.93 1015.13 1015.21 1015.09 1015.09 1015.05 1014.97 1014.85 1015.01 1015.81 1016.37 1016.57 1016.97 1016.53 1016.57 1016.41 1016.49 1016.49 1016.21 1016.17 1016.09 1016.01 1015.85 1016.57 1016.05 1016.13 1016.41 1016.09 1016.45 1016.61 1016.49 1016.53 1016.53 1016.65 1016.69 1016.93 1017.09 1017.05 1017.01 1016.65 1016.69 1016.65 1016.69 1016.57 1016.61 1016.81 1016.77 1016.85 1017.33 1017.89 1018.17
1011.29 1011.73 1011.89 1011.77 1012.17 1012.09 1012.41 1012.69 1013.01 1013.65 1013.89 1013.85 1014.29 1014.77 1015.53 1015.29 1015.25 1015.21 1015.25 1015.05 1015.25 1016.05 1016.61 1016.41 1016.25 1016.41 1016.45 1016.65 1016.81 1016.41 1015.97 1016.25 1016.21 1016.41 1016.93 1016.57 1016.37 1016.45 1016.13 1016.17 1016.41 1016.45 1016.53 1016.45 1016.37 1016.45 1016.45 1016.77 1017.01 1016.97 1016.85 1016.81 1016.81 1016.73 1016.85 1016.81 1016.89 1016.89 1016.89 1017.17 1017.61 1018.09
1011.57 1011.53 1011.89 1012.05 1012.41 1012.49 1012.77 1012.89 1012.89 1013.13 1013.25 1013.65 1013.85 1014.37 1014.17 1014.57 1014.77 1014.89 1014.97 1014.97 1015.05 1015.21 1015.45 1015.81 1015.81 1015.89 1016.29 1016.33 1016.33 1016.33 1016.21 1016.29 1016.09 1016.81 1017.09 1017.17 1016.81 1016.49 1016.53 1016.37 1016.37 1016.45 1016.33 1016.37 1016.37 1016.21 1016.33 1016.41 1016.69 1016.93 1016.77 1016.65 1016.69 1016.69 1016.57 1016.89 1016.97 1016.89 1016.81 1017.01 1017.37 1018.05
1011.45 1011.77 1011.81 1012.13 1012.45 1012.69 1012.81 1012.89 1012.69 1013.09 1013.29 1013.41 1013.65 1013.61 1013.81 1013.97 1014.17 1014.45 1014.81 1014.85 1015.01 1015.09 1015.05 1015.37 1015.65 1015.77 1015.53 1015.49 1015.65 1015.73 1016.29 1016.01 1016.49 1016.81 1016.81 1016.93 1016.65 1016.37 1016.29 1016.25 1016.41 1016.37 1016.49 1016.53 1016.37 1016.17 1016.45 1016.45 1016.17 1016.29 1016.49 1016.37 1016.33 1016.45 1016.45 1016.65 1016.61 1016.69 1016.81 1017.13 1017.17 1017.85
1011.89 1012.29 1012.25 1012.17 1012.77 1012.93 1012.97 1012.81 1012.89 1012.97 1013.53 1013.37 1013.65 1013.69 1013.61 1013.61 1013.93 1014.13 1014.41 1014.37 1015.05 1015.01 1015.13 1015.25 1015.49 1015.65 1015.85 1016.09 1016.05 1016.13 1016.01 1016.29 1016.29 1016.69 1016.49 1016.61 1016.37 1016.25 1016.13 1016.17 1016.33 1016.61 1016.85 1017.25 1016.61 1016.49 1016.49 1016.61 1016.33 1016.01 1015.89 1016.21 1016.17 1016.29 1016.37 1016.57 1016.65 1016.49 1016.61 1016.77 1016.97 1017.33
1012.09 1012.65 1012.65 1012.61 1012.65 1012.85 1012.97 1013.01 1013.17 1013.25 1013.61 1013.73 1013.73 1013.77 1013.89 1013.93 1014.05 1014.41 1014.53 1014.41 1014.65 1014.89 1014.93 1015.13 1015.45 1015.69 1015.89 1015.89 1016.21 1016.81 1016.37 1016.45 1016.41 1016.25 1016.53 1016.53 1016.29 1016.29 1016.41 1016.45 1016.65 1016.65 1017.05 1017.25 1017.01 1016.57 1016.41 1016.57 1016.49 1016.13 1015.93 1015.97 1015.97 1016.09 1016.17 1016.21 1016.57 1016.61 1016.61 1016.61 1016.77 1016.97
1012.45 1012.73 1012.89 1012.77 1013.05 1012.81 1013.13 1013.21 1013.21 1013.29 1013.49 1013.85 1014.01 1014.01 1013.93 1014.01 1014.09 1014.21 1014.49 1014.61 1014.73 1014.93 1014.81 1014.97 1015.13 1015.57 1015.57 1015.85 1015.73 1016.01 1016.53 1016.81 1016.57 1016.53 1016.61 1016.61 1016.57 1016.41 1016.77 1016.81 1016.93 1017.13 1017.13 1017.25 1017.33 1017.01 1016.93 1016.73 1016.41 1016.25 1016.45 1016.29 1016.29 1016.25 1015.97 1015.85 1016.01 1016.37 1016.49 1016.49 1016.45 1016.69
1012.73 1012.81 1013.05 1013.13 1013.29 1013.33 1013.37 1013.21 1013.17 1013.33 1013.61 1013.73 1013.77 1014.13 1014.37 1014.21 1014.37 1014.25 1014.53 1014.65 1014.93 1015.01 1014.85 1014.85 1015.13 1015.61 1015.89 1015.85 1015.89 1016.05 1016.09 1016.65 1016.49 1016.33 1016.53 1016.77 1016.85 1016.61 1016.53 1016.77 1016.97 1017.09 1017.21 1017.13 1017.05 1017.05 1016.85 1016.73 1016.45 1016.37 1016.45 1016.61 1016.61 1016.45 1016.41 1016.13 1015.69 1016.05 1016.29 1016.45 1016.45 1016.45
1013.05 1013.21 1013.25 1013.41 1013.49 1013.57 1013.65 1013.49 1013.49 1013.77 1013.73 1013.85 1013.61 1013.73 1014.25 1014.33 1014.21 1014.73 1014.65 1014.73 1014.93 1014.93 1014.89 1014.93 1015.13 1015.13 1015.73 1015.73 1016.01 1016.17 1016.17 1016.41 1016.49 1016.61 1016.93 1017.21 1017.05 1016.85 1016.49 1016.69 1016.73 1016.57 1017.01 1016.97 1016.85 1016.93 1016.89 1016.85 1016.73 1016.73 1016.53 1016.73 1016.73 1016.69 1016.61 1016.45 1016.37 1016.09 1015.89 1016.13 1016.37 1016.41
1013.25 1013.37 1013.49 1013.57 1013.65 1013.73 1013.73 1013.73 1013.73 1013.89 1014.01 1013.97 1013.81 1013.77 1013.85 1014.21 1014.41 1014.33 1014.81 1015.01 1014.85 1014.93 1015.01 1015.09 1015.25 1015.41 1015.57 1015.77 1015.97 1016.37 1015.81 1016.09 1016.49 1016.81 1017.05 1017.29 1017.01 1016.77 1016.65 1016.65 1016.81 1016.49 1016.37 1016.49 1016.45 1016.53 1016.69 1016.85 1017.05 1016.97 1016.73 1016.69 1016.93 1016.89 1016.89 1016.73 1016.65 1016.49 1016.09 1016.09 1016.05 1016.05
1013.21 1013.33 1013.53 1013.73 1013.85 1013.89 1013.77 1013.89 1013.93 1013.93 1014.05 1014.01 1014.05 1013.85 1013.65 1013.65 1014.17 1014.49 1014.53 1015.01 1015.01 1015.09 1015.29 1015.29 1015.41 1015.49 1015.57 1015.65 1015.93 1016.09 1015.93 1015.89 1016.13 1016.53 1017.33 1017.53 1017.21 1016.93 1017.21 1016.93 1016.77 1016.81 1016.29 1016.29 1016.13 1016.17 1016.49 1016.73 1016.89 1017.05 1017.17 1017.13 1017.09 1016.85 1016.85 1016.85 1016.53 1016.41 1016.41 1016.41 1016.21 1016.13
1013.29 1013.49 1013.69 1013.81 1013.89 1013.93 1014.09 1014.09 1014.17 1014.29 1014.41 1014.33 1014.21 1014.29 1014.25 1014.45 1014.61 1014.65 1014.89 1014.89 1014.93 1015.05 1015.29 1015.61 1015.69 1015.53 1015.65 1015.69 1015.89 1015.97 1016.05 1016.09 1016.09 1016.41 1016.77 1017.21 1017.01 1017.09 1017.33 1016.53 1016.73 1016.53 1016.21 1016.21 1017.21 1017.21 1016.85 1016.89 1016.97 1017.01 1017.21 1017.29 1017.29 1017.17 1016.77 1016.73 1016.89 1016.69 1016.49 1016.37 1016.01 1016.17
1013.33 1013.49 1013.69 1013.89 1013.97 1014.01 1014.09 1014.25 1014.49 1014.37 1014.45 1014.37 1014.33 1014.57 1014.61 1014.65 1014.77 1014.93 1015.01 1015.01 1015.09 1015.09 1014.97 1015.13 1015.21 1015.21 1015.25 1015.85 1016.13 1016.01 1016.13 1016.13 1016.21 1016.29 1016.45 1016.85 1017.13 1017.33 1017.45 1017.45 1016.69 1016.89 1016.81 1016.77 1016.77 1016.93 1017.17 1017.33 1017.25 1017.41 1017.65 1017.57 1017.53 1017.45 1017.21 1016.85 1016.85 1016.93 1016.81 1016.53 1016.29 1016.01
1013.33 1013.49 1013.73 1013.97 1013.97 1013.93 1014.13 1014.33 1014.45 1014.49 1014.77 1014.77 1014.69 1014.93 1014.97 1014.89 1014.89 1015.17 1015.13 1015.09 1015.13 1015.13 1015.17 1015.21 1015.17 1015.21 1015.41 1015.53 1015.57 1015.97 1016.09 1016.13 1016.17 1016.29 1016.61 1016.73 1016.81 1017.05 1017.17 1017.09 1017.17 1017.57 1017.33 1017.01 1016.89 1016.97 1017.01 1016.93 1017.53 1017.73 1017.53 1017.73 1017.81 1017.57 1017.57 1017.49 1017.33 1017.09 1016.97 1016.81 1016.45 1016.29
1013.29 1013.53 1013.65 1013.73 1013.85 1013.93 1013.97 1014.01 1014.45 1014.49 1014.41 1014.57 1014.73 1014.69 1015.05 1015.17 1015.41 1015.49 1015.53 1015.57 1015.49 1015.45 1015.53 1015.53 1015.53 1015.49 1015.45 1015.33 1015.45 1015.57 1015.77 1015.93 1016.13 1016.41 1016.45 1016.45 1016.65 1016.85 1017.01 1017.13 1017.09 1017.69 1017.25 1017.05 1017.25 1017.01 1017.25 1017.37 1018.53 1018.25 1018.41 1018.41 1017.97 1017.73 1017.69 1017.73 1017.57 1017.13 1017.05 1017.25 1016.93 1016.69
1013.17 1013.45 1013.61 1013.73 1013.81 1014.17 1014.09 1014.13 1014.09 1014.37 1014.29 1014.65 1014.73 1014.81 1014.93 1015.25 1015.25 1015.57 1015.73 1015.69 1015.73 1015.69 1015.65 1015.65 1015.73 1015.73 1015.69 1015.53 1015.53 1015.57 1015.65 1015.65 1015.69 1015.85 1016.25 1016.61 1016.65 1016.77 1016.85 1017.01 1017.09 1017.45 1017.41 1017.45 1017.41 1017.53 1017.73 1017.73 1018.33 1018.45 1018.69 1018.57 1018.65 1018.69 1018.21 1017.97 1017.49 1017.21 1017.13 1017.09 1017.21 1017.09
1013.17 1013.25 1013.53 1013.77 1013.85 1014.01 1014.25 1014.33 1014.33 1014.49 1014.57 1014.65 1015.25 1015.45 1015.53 1015.53 1015.61 1015.65 1015.89 1015.81 1015.81 1015.89 1015.81 1015.69 1015.65 1015.65 1015.61 1015.73 1015.73 1015.61 1015.61 1015.65 1015.77 1015.77 1015.97 1016.49 1016.45 1016.81 1016.53 1017.01 1017.33 1017.37 1017.49 1017.81 1017.89 1017.81 1018.01 1017.85 1018.29 1018.69 1019.13 1018.81 1018.97 1018.85 1018.89 1018.45 1018.37 1017.85 1017.09 1017.25 1017.57 1017.73
1013.05 1013.21 1013.41 1013.77 1013.97 1014.21 1014.61 1014.77 1014.81 1014.93 1015.05 1015.33 1015.37 1015.53 1015.65 1015.85 1015.81 1015.93 1015.97 1016.05 1016.17 1016.05 1016.05 1016.09 1016.01 1015.85 1015.77 1015.93 1015.69 1015.69 1015.65 1015.89 1015.97 1016.01 1015.97 1016.21 1016.57 1016.29 1016.57 1016.77 1016.61 1017.05 1017.33 1017.65 1017.93 1017.77 1017.77 1017.93 1018.05 1017.93 1018.45 1019.09 1019.01 1019.17 1018.97 1018.73 1018.45 1018.13 1017.69 1017.85 1017.69 1017.73
1012.85 1013.05 1013.37 1013.73 1013.97 1014.33 1014.65 1014.89 1015.21 1015.49 1015.73 1015.77 1015.97 1015.97 1016.09 1016.21 1016.13 1016.09 1016.21 1016.21 1016.13 1016.13 1016.21 1016.21 1016.09 1016.05 1016.13 1016.09 1016.09 1015.93 1015.77 1015.69 1016.09 1016.21 1016.17 1016.13 1016.01 1016.13 1016.25 1016.65 1016.29 1016.45 1017.49 1017.49 1017.53 1018.13 1018.33 1017.97 1017.89 1017.85 1017.85 1018.25 1018.29 1018.77 1018.97 1018.69 1018.69 1019.17 1018.01 1017.73 1017.77 1017.69
1012.73 1012.97 1013.21 1013.61 1013.89 1014.21 1014.61 1014.77 1015.09 1015.13 1015.21 1015.37 1015.73 1015.69 1015.61 1015.81 1015.97 1016.09 1016.13 1016.29 1016.45 1016.37 1016.33 1016.45 1016.41 1016.37 1016.37 1016.37 1016.33 1016.13 1016.09 1015.97 1016.01 1016.17 1016.21 1016.33 1016.33 1016.17 1015.89 1016.01 1016.09 1016.37 1016.65 1017.05 1017.17 1017.61 1017.97 1018.17 1017.89 1017.77 1017.69 1017.77 1017.93 1018.05 1018.33 1018.97 1018.85 1018.81 1019.01 1018.25 1017.93 1018.05
1012.57 1012.85 1013.09 1013.41 1013.85 1014.05 1014.49 1014.73 1015.01 1015.01 1015.01 1015.13 1015.41 1015.85 1015.89 1015.93 1015.97 1016.05 1016.33 1016.41 1016.41 1016.53 1016.41 1016.37 1016.49 1016.45 1016.49 1016.49 1016.53 1016.49 1016.41 1016.41 1016.25 1016.17 1016.13 1016.33 1016.49 1016.49 1016.45 1016.41 1016.65 1016.61 1016.53 1016.69 1017.01 1017.61 1017.81 1017.73 1017.97 1018.25 1017.85 1017.85 1017.89 1017.89 1017.85 1017.65 1017.69 1018.09 1018.89 1019.37 1018.93 1018.37
1012.45 1012.77 1013.05 1013.37 1013.73 1014.01 1014.21 1014.53 1014.81 1014.85 1015.05 1014.93 1015.29 1015.65 1015.69 1015.85 1016.09 1016.21 1016.53 1016.45 1016.37 1016.45 1016.57 1016.53 1016.53 1016.65 1016.61 1016.65 1016.69 1016.73 1016.69 1016.65 1016.61 1016.49 1016.33 1016.61 1016.81 1016.93 1017.09 1017.17 1017.13 1017.13 1017.21 1017.17 1017.09 1017.13 1017.05 1017.41 1017.49 1017.81 1017.77 1017.81 1017.61 1017.69 1017.57 1017.77 1017.41 1017.49 1019.09 1018.89 1018.89 1018.85
1012.41 1012.57 1012.89 1013.29 1013.61 1013.93 1014.13 1014.33 1014.77 1014.77 1014.97 1015.09 1015.25 1015.49 1015.57 1016.05 1016.25 1016.41 1016.65 1016.69 1016.73 1016.73 1016.81 1016.93 1016.85 1016.77 1016.81 1016.81 1016.89 1016.89 1016.93 1017.01 1017.01 1016.93 1016.89 1017.09 1017.25 1017.33 1017.41 1017.41 1017.41 1017.41 1017.41 1017.45 1017.37 1017.33 1017.45 1017.41 1017.37 1017.41 1017.53 1017.53 1017.73 1017.41 1017.49 1017.37 1018.05 1017.97 1017.69 1018.25 1018.81 1018.37
1012.17 1012.33 1012.77 1013.17 1013.49 1013.89 1014.05 1014.25 1014.57 1014.73 1014.89 1015.13 1015.33 1015.53 1015.85 1016.25 1016.29 1016.49 1016.69 1016.81 1016.77 1016.81 1016.81 1017.05 1017.09 1017.17 1017.09 1017.13 1017.17 1017.13 1017.21 1017.21 1017.21 1017.21 1017.17 1017.17 1017.25 1017.29 1017.49 1017.57 1017.61 1017.61 1017.65 1017.65 1017.69 1017.77 1017.77 1017.69 1017.61 1017.73 1017.65 1017.53 1017.61 1017.77 1018.05 1018.17 1018.09 1017.89 1018.05 1018.13 1018.01 1017.77
1012.01 1012.25 1012.61 1012.93 1013.33 1013.69 1013.97 1014.21 1014.37 1014.61 1014.89 1015.01 1015.29 1015.61 1015.89 1016.21 1016.29 1016.45 1016.57 1016.73 1016.65 1016.81 1016.97 1017.13 1017.25 1017.33 1017.37 1017.33 1017.37 1017.45 1017.45 1017.41 1017.45 1017.45 1017.45 1017.41 1017.37 1017.41 1017.45 1017.45 1017.57 1017.65 1017.81 1017.85 1017.85 1017.89 1018.01 1018.09 1018.01 1017.93 1018.01 1017.93 1017.93 1017.97 1017.97 1018.09 1018.05 1018.17 1018.25 1018.21 1018.21 1018.09
1011.89 1012.05 1012.41 1012.73 1013.17 1013.49 1013.81 1014.09 1014.33 1014.53 1014.77 1014.89 1015.17 1015.37 1015.61 1015.89 1015.97 1016.13 1016.25 1016.49 1016.65 1016.85 1016.97 1017.25 1017.33 1017.41 1017.53 1017.49 1017.45 1017.61 1017.57 1017.57 1017.65 1017.65 1017.65 1017.61 1017.69 1017.65 1017.61 1017.65 1017.81 1017.93 1018.01 1018.05 1018.17 1018.21 1018.33 1018.49 1018.45 1018.41 1018.33 1018.17 1018.01 1017.97 1018.13 1018.21 1018.25 1018.33 1018.29 1018.25 1018.29 1018.33
1011.65 1011.85 1012.17 1012.57 1012.93 1013.37 1013.65 1013.89 1014.09 1014.33 1014.53 1014.69 1015.01 1015.09 1015.21 1015.53 1015.69 1015.77 1015.93 1016.21 1016.41 1016.53 1016.85 1017.09 1017.25 1017.37 1017.45 1017.45 1017.41 1017.45 1017.53 1017.61 1017.65 1017.77 1017.81 1017.89 1017.85 1017.77 1017.73 1017.69 1017.97 1018.13 1018.21 1018.25 1018.29 1018.33 1018.45 1018.57 1018.61 1018.57 1018.49 1018.33 1018.41 1018.33 1018.41 1018.45 1018.53 1018.49 1018.45 1018.53 1018.45 1018.45
1011.57 1011.85 1012.09 1012.45 1012.77 1013.17 1013.45 1013.69 1013.89 1014.09 1014.33 1014.45 1014.77 1014.93 1015.01 1015.09 1015.45 1015.57 1015.69 1015.97 1016.13 1016.17 1016.49 1016.73 1016.97 1017.13 1017.33 1017.41 1017.45 1017.57 1017.61 1017.73 1017.81 1017.85 1017.89 1017.93 1017.97 1018.01 1017.97 1017.93 1018.09 1018.29 1018.29 1018.33 1018.41 1018.45 1018.65 1018.65 1018.73 1018.81 1018.77 1018.65 1018.49 1018.33 1018.57 1018.41 1018.53 1018.57 1018.41 1018.45 1018.57 1018.57
1011.41 1011.77 1011.97 1012.41 1012.65 1012.93 1013.25 1013.45 1013.73 1014.01 1014.21 1014.29 1014.45 1014.65 1014.81 1014.77 1015.09 1015.29 1015.49 1015.77 1015.97 1016.01 1016.09 1016.41 1016.69 1016.97 1017.29 1017.33 1017.53 1017.69 1017.77 1017.85 1017.89 1017.97 1018.01 1018.05 1018.05 1018.05 1018.17 1018.21 1018.29 1018.45 1018.53 1018.45 1018.61 1018.61 1018.61 1018.69 1018.89 1018.85 1018.81 1018.81 1018.45 1018.45 1018.53 1018.57 1018.49 1018.53 1018.65 1018.77 1018.77 1018.69
1011.41 1011.57 1011.97 1012.33 1012.61 1012.85 1013.09 1013.41 1013.69 1013.85 1014.09 1014.29 1014.37 1014.57 1014.65 1014.77 1014.93 1015.13 1015.29 1015.53 1015.69 1015.85 1015.89 1016.17 1016.49 1016.81 1017.13 1017.17 1017.41 1017.61 1017.73 1017.85 1017.97 1018.01 1018.05 1018.09 1018.09 1018.17 1018.29 1018.29 1018.45 1018.61 1018.65 1018.57 1018.57 1018.69 1018.69 1018.73 1018.89 1018.81 1018.85 1018.93 1018.73 1018.49 1018.65 1018.73 1018.65 1018.77 1018.81 1018.85 1018.85 1018.81
Wind_Speed
10 11 11 10 9 10 8 7 6 6 4 6 7 8 9 7 4 4 4 6 4 3 6 3 4 3 4 4 5 7 10 11 10 10 10 10 10 11 11 11 11 10 9 9 9 7 5 4 4 5 4 6 7 6 6 3 1 1 3 3 6 9
11 11 10 7 7 8 7 8 8 7 7 7 6 8 7 6 6 5 5 6 4 3 1 3 6 7 7 6 7 9 9 10 10 9 7 10 11 11 11 11 11 10 9 8 10 5 6 5 5 5 6 6 6 6 4 3 3 3 1 4 9 10
15 11 10 7 7 6 8 8 9 9 8 8 8 6 6 5 5 4 5 5 2 1 5 3 3 5 4 2 4 10 11 10 11 12 10 11 11 11 10 10 10 11 10 9 7 5 6 6 6 9 6 6 6 5 2 3 4 2 5 7 7 13
13 17 9 7 4 5 5 4 6 6 6 7 6 7 7 6 5 8 8 3 5 6 6 3 4 7 5 6 5 6 10 11 12 13 13 11 12 12 12 11 11 11 9 8 6 6 5 5 6 6 6 6 6 4 4 4 5 3 3 8 9 12
7 10 16 9 8 6 5 5 4 6 6 6 6 6 7 6 8 5 6 6 7 6 3 6 6 5 6 6 6 6 7 8 8 9 12 8 8 8 10 7 8 9 7 7 6 4 4 4 4 4 5 4 3 4 5 5 4 3 3 10 9 12
6 8 6 8 12 9 7 5 3 2 4 4 4 5 3 4 3 3 6 5 2 6 6 5 7 7 4 4 4 6 7 6 8 8 9 7 8 8 8 8 7 7 6 5 5 4 4 4 4 5 4 5 4 4 4 4 4 3 3 9 10 14
6 5 4 5 6 11 10 7 5 5 4 2 3 3 2 4 3 4 6 5 3 3 4 4 4 4 5 3 5 6 8 7 8 8 8 7 7 8 7 6 5 6 5 5 6 6 5 4 5 5 5 5 5 6 5 4 3 4 3 8 10 16
5 5 3 4 4 3 5 9 10 8 10 10 8 4 4 4 4 5 7 6 8 5 3 3 2 4 5 5 6 7 5 1 3 3 5 7 6 6 6 6 5 5 4 5 5 6 6 5 5 6 5 4 3 4 3 4 4 3 4 7 8 13
6 4 5 2 4 2 3 4 4 8 5 4 6 8 8 8 8 8 8 3 2 6 4 4 6 6 4 7 8 6 5 5 5 2 6 5 4 3 3 4 4 4 4 4 4 6 7 7 5 4 6 4 5 6 5 3 4 4 4 6 8 11
5 5 5 2 1 1 2 2 3 2 3 6 4 5 7 8 6 6 5 5 2 4 6 5 3 5 9 7 5 6 1 5 3 4 0 5 7 4 1 3 3 4 3 3 4 5 5 6 8 6 7 7 6 6 5 4 5 4 4 4 6 9
5 3 4 4 2 2 1 2 1 3 2 2 3 1 3 5 6 5 4 5 4 2 2 3 3 4 3 2 2 2 5 2 2 4 1 5 2 3 3 3 3 1 2 2 3 3 4 5 7 8 8 8 6 5 5 5 6 6 6 5 7 8
8 2 2 5 2 2 2 1 0 2 1 2 1 2 3 2 2 2 4 4 7 5 2 3 1 2 1 4 3 3 1 3 2 4 3 3 3 3 3 4 4 2 3 3 4 4 4 5 6 8 8 8 8 6 6 5 6 5 5 6 5 6
7 5 1 2 4 1 2 0 1 0 3 1 2 2 2 2 2 3 1 4 5 5 4 3 3 1 2 4 4 2 4 3 2 3 3 3 4 3 2 2 4 3 2 2 5 4 5 6 6 6 5 6 6 7 7 7 7 6 6 5 6 5
6 6 2 2 2 2 3 2 1 1 2 2 1 1 0 1 2 1 3 3 3 4 4 2 3 2 2 2 5 3 3 4 3 4 2 2 3 4 4 5 4 5 5 6 5 5 5 6 6 5 4 6 4 5 6 8 8 7 6 6 6 6
3 5 3 4 1 3 1 0 1 2 3 2 3 2 1 1 2 3 4 3 3 2 2 3 3 4 4 6 3 4 2 2 2 3 3 2 2 5 5 6 6 7 7 6 6 6 6 6 5 5 5 4 5 6 6 7 6 7 7 7 5 6
4 5 2 4 3 2 3 1 4 2 1 1 1 3 3 1 2 4 1 2 3 2 4 3 3 4 5 3 3 6 4 2 2 2 3 3 4 6 6 4 7 7 8 8 7 7 6 6 4 4 3 4 4 5 5 5 6 7 7 7 7 6
6 5 4 4 4 3 2 3 2 3 2 2 1 1 4 4 1 2 5 2 4 5 2 2 2 2 1 2 2 3 4 4 4 2 3 2 6 5 5 7 3 6 6 7 8 9 7 6 4 4 3 4 5 4 5 5 5 6 7 7 7 8
5 5 5 4 4 4 3 3 2 3 3 3 2 2 2 1 2 3 0 4 3 2 0 2 4 4 3 1 2 3 3 3 4 5 5 3 5 3 5 8 5 6 7 7 7 6 6 5 4 2 2 4 4 3 3 5 5 6 7 8 7 7
6 6 5 5 5 3 4 1 4 2 4 2 2 3 2 3 3 3 3 2 2 3 5 5 5 6 4 0 1 4 3 2 2 2 4 6 7 6 7 5 6 5 5 4 7 6 2 1 3 2 1 3 3 5 4 2 5 6 6 8 8 7
7 6 6 5 5 4 4 4 3 3 2 2 3 4 2 3 2 3 2 2 2 0 1 1 1 2 2 4 7 4 3 3 3 4 3 3 6 4 5 8 6 7 5 7 5 4 2 4 2 2 2 2 4 7 8 6 5 6 6 7 7 6
8 7 6 6 5 4 4 3 2 2 4 3 3 4 2 4 4 4 5 4 3 3 3 3 2 1 2 2 2 4 2 4 4 4 3 4 3 5 4 4 4 5 10 6 7 6 6 5 3 3 2 2 3 2 7 8 9 7 6 7 7 7
8 7 6 5 4 2 3 3 4 4 3 4 5 4 4 4 3 3 3 3 3 4 3 2 2 3 3 3 1 2 3 3 5 4 3 3 5 4 3 4 4 6 7 6 5 5 2 2 3 4 2 2 2 1 5 6 9 9 6 6 8 8
8 8 6 5 4 4 2 3 0 4 1 5 6 6 5 5 4 5 3 3 3 2 1 2 1 1 1 2 2 3 2 2 3 2 4 6 4 3 5 6 4 4 4 4 3 4 0 4 2 3 3 2 2 2 2 3 6 6 6 6 6 6
9 8 7 6 4 5 4 4 5 4 5 4 6 5 5 4 4 4 5 4 4 3 3 2 1 2 1 3 2 2 2 2 1 1 2 4 1 5 3 5 6 6 4 3 4 1 2 2 1 3 2 2 1 2 3 2 2 3 4 3 6 5
9 8 8 8 5 6 6 5 5 5 6 7 6 5 4 4 4 4 4 4 4 3 3 3 3 4 3 1 1 2 2 3 2 1 0 1 2 2 3 1 2 4 4 1 2 1 1 1 2 3 1 2 2 2 2 1 3 2 1 2 2 2
9 9 9 9 7 7 6 6 6 6 6 5 5 5 4 4 4 3 5 4 4 4 4 3 3 4 4 3 2 1 2 2 3 3 1 1 1 3 3 6 1 3 6 2 0 4 2 1 3 3 3 1 1 1 0 1 2 0 0 1 1 2
10 9 10 10 10 7 7 6 7 6 6 6 6 4 5 4 4 4 4 4 4 3 3 4 3 3 3 3 2 3 3 3 3 2 3 4 5 6 5 6 4 3 4 4 3 2 3 2 0 1 3 2 1 3 2 3 1 1 3 1 2 2
10 10 9 10 10 8 8 7 7 6 6 5 6 6 6 5 4 4 4 4 4 3 3 3 3 3 3 3 3 3 2 2 2 3 2 3 3 4 5 6 7 6 5 4 3 4 4 2 2 0 2 3 3 2 5 4 3 4 2 4 3 2
11 10 10 12 11 10 8 8 8 6 6 5 7 7 6 6 5 5 5 3 3 4 3 3 4 3 4 4 3 3 4 4 4 3 3 4 4 5 6 5 6 5 5 4 5 4 0 4 3 3 1 2 3 5 4 5 2 2 3 4 2 1
13 11 11 12 11 11 10 9 8 7 8 7 7 6 6 6 5 5 5 4 4 3 4 3 3 4 4 4 4 3 4 4 4 6 6 6 5 5 5 5 5 5 4 4 4 5 5 4 3 3 3 2 3 2 3 1 3 5 2 1 4 3
14 11 12 13 12 11 10 9 8 8 8 8 8 7 7 6 6 5 5 5 4 4 3 4 3 3 3 4 4 4 3 4 4 3 4 4 4 5 4 5 4 4 5 6 5 4 5 5 3 3 4 3 3 3 4 4 5 5 3 4 4 4
15 13 13 13 13 12 10 9 9 9 9 8 8 7 7 7 7 7 6 5 4 5 5 4 3 3 3 3 3 3 3 3 4 3 3 3 3 4 4 4 4 4 4 4 4 4 4 4 4 2 3 3 3 3 2 4 5 4 4 5 5 6
16 14 13 13 13 13 11 10 9 9 9 8 9 8 8 8 8 7 7 6 6 5 5 5 4 4 4 4 3 3 2 2 3 3 3 4 4 5 4 4 4 5 5 6 5 5 5 5 5 6 4 2 4 3 3 3 2 3 4 3 4 5
16 15 13 13 14 13 12 11 10 9 9 9 9 9 8 8 8 7 6 7 6 5 5 5 5 5 5 5 4 3 2 3 3 4 3 3 3 3 2 4 5 5 5 4 4 4 4 4 4 4 4 3 4 3 4 3 3 2 2 3 4 4
15 15 14 14 13 14 12 11 10 9 9 8 9 8 8 7 8 7 7 7 6 5 6 6 6 5 6 5 5 4 4 4 4 4 4 3 3 3 2 3 4 4 4 4 4 4 4 4 4 4 4 4 1 2 3 3 2 3 3 4 3 3
14 14 13 13 13 13 12 11 11 11 10 9 8 8 8 7 8 7 7 7 6 6 5 6 7 7 7 5 5 5 5 4 4 4 3 3 3 3 3 3 3 3 3 3 3 3 3 3 4 4 5 4 3 4 3 4 5 4 4 4 4 3
13 12 12 12 11 12 11 11 11 11 10 9 9 9 8 8 8 8 8 7 7 7 6 7 7 8 8 7 6 6 6 6 5 4 4 4 3 3 3 2 3 3 3 2 2 3 3 3 2 3 3 3 4 2 4 3 2 3 4 3 3 4
Wind_Direction
137 155 161 166 172 179 182 182 145 129 133 146 119 124 111 124 152 144 157 149 161 207 196 122 156 186 196 178 169 152 155 156 173 168 165 164 158 154 158 158 156 156 151 148 148 148 145 157 168 168 216 212 203 223 238 268 33 301 135 140 111 107
146 150 151 152 156 159 171 195 188 171 178 170 155 142 139 171 183 178 185 157 185 202 135 184 177 184 185 198 152 154 154 164 162 151 168 166 161 161 163 159 154 153 153 160 158 171 176 174 183 196 192 213 219 229 237 215 236 179 5 131 104 115
141 147 147 150 159 152 156 174 188 186 188 178 186 175 174 182 202 197 179 177 144 176 209 167 180 169 174 203 170 166 154 166 157 159 182 175 167 161 160 162 160 157 163 168 185 212 214 190 192 192 212 206 228 227 182 251 233 153 218 97 106 122
137 141 144 143 147 143 154 161 166 162 178 183 181 197 196 206 214 194 190 187 197 186 191 157 168 175 169 187 180 187 161 158 166 169 176 177 173 169 163 164 164 165 176 190 200 207 227 203 184 183 208 215 211 182 202 189 237 186 200 103 109 125
153 149 147 157 153 159 168 169 177 159 173 180 175 185 208 174 211 188 245 174 184 115 237 164 156 211 192 187 183 191 176 183 183 183 173 190 178 175 181 176 174 183 201 203 207 209 238 278 198 202 212 210 239 182 207 186 228 220 154 103 122 124
167 153 151 159 151 157 179 161 203 207 175 176 168 188 193 203 209 198 210 179 189 164 192 189 179 178 189 165 203 194 196 194 205 184 193 197 182 174 199 183 188 193 205 205 202 219 215 257 252 199 227 194 212 202 222 200 173 213 151 116 129 122
166 132 153 182 142 150 160 182 163 208 226 189 207 183 201 192 226 236 219 189 154 218 192 244 159 169 190 192 200 211 205 189 209 198 185 195 202 177 203 170 192 190 199 210 206 193 203 238 276 279 226 208 193 210 201 191 170 194 173 118 128 129
143 132 155 194 139 167 165 159 168 185 195 165 179 176 208 213 189 225 240 183 169 174 225 182 192 185 197 190 242 219 214 180 255 245 154 227 189 207 191 167 189 201 197 204 208 194 204 209 234 268 250 226 227 235 234 191 177 201 169 127 139 139
113 158 148 272 133 203 142 180 164 159 181 165 172 180 160 189 192 203 219 204 204 160 176 211 186 204 196 197 199 238 210 188 208 10 1 323 12 282 208 180 180 187 204 215 208 210 200 203 191 248 254 224 234 217 209 209 187 194 192 151 149 147
150 161 128 180 95 96 103 284 163 201 151 167 184 179 179 171 185 205 188 202 190 225 146 219 222 231 203 193 213 185 262 233 135 115 242 276 183 199 249 160 182 199 193 207 227 203 216 203 192 199 232 226 202 238 186 205 203 205 187 185 135 149
127 61 135 153 126 112 154 225 195 142 139 183 121 185 174 182 176 179 179 201 143 256 160 178 211 242 292 198 253 167 209 38 1 60 67 282 279 230 173 153 185 278 153 272 227 224 209 230 220 197 209 225 219 207 214 209 209 197 198 187 152 151
107 101 328 108 135 128 238 200 159 127 135 126 108 214 205 220 113 160 159 170 144 217 198 207 222 240 205 326 288 331 253 203 175 167 179 244 223 233 196 187 146 156 105 300 271 217 207 234 224 225 202 210 220 203 219 198 226 208 210 187 176 175
115 124 186 23 102 74 109 181 97 283 128 38 185 204 206 209 194 126 190 179 183 160 204 172 172 163 267 200 228 226 237 119 216 205 192 261 262 191 179 138 134 144 141 219 265 227 215 211 230 239 246 224 218 208 215 201 200 222 214 208 199 197
117 148 141 113 84 191 102 78 240 148 120 192 170 275 216 165 225 139 169 160 178 175 207 166 187 201 300 249 239 210 191 196 186 217 184 230 228 196 173 172 157 163 189 202 225 229 237 221 214 219 233 237 232 256 235 219 191 200 208 228 203 203
129 110 146 93 173 67 111 352 166 95 57 317 144 166 61 223 206 171 176 178 163 186 198 200 224 121 261 271 229 215 357 77 212 202 202 213 267 234 203 180 184 179 182 202 198 215 224 228 237 217 196 223 230 221 249 264 229 196 205 214 232 222
136 111 115 97 90 69 99 347 42 59 122 314 273 150 155 247 195 171 119 168 189 186 203 198 208 205 206 235 344 304 124 201 197 188 194 237 251 245 212 196 191 207 171 196 195 194 215 232 241 234 210 214 222 237 241 243 268 253 221 210 213 224
145 132 128 118 120 102 91 99 82 56 59 224 209 204 154 172 158 2 130 226 176 198 252 211 219 197 303 271 202 236 240 160 184 234 231 230 251 275 262 204 218 232 210 204 200 194 193 207 229 240 245 217 210 227 236 241 238 255 254 237 228 210
143 138 134 139 126 150 135 108 148 118 14 48 15 10 2 118 134 169 177 143 153 157 167 249 219 229 209 253 3 270 251 191 193 192 161 222 258 258 284 248 203 230 221 222 209 205 188 196 203 231 323 330 317 261 223 250 248 231 235 243 234 240
150 141 143 146 140 120 106 144 78 135 138 157 107 47 23 64 39 37 63 57 98 140 155 201 236 217 202 223 199 216 245 245 223 207 191 188 212 226 257 255 233 222 232 242 49 319 304 155 215 238 270 309 318 294 284 238 265 269 244 244 233 211
152 151 147 156 164 168 168 165 138 147 141 67 65 79 65 92 112 59 83 71 71 143 90 27 47 344 314 157 205 226 197 221 219 229 219 201 225 216 227 251 248 251 221 228 168 237 226 214 215 202 278 303 296 301 300 296 277 254 257 250 251 229
154 156 165 170 180 178 163 138 133 128 117 150 100 117 78 48 55 63 19 44 36 42 16 10 332 267 216 235 242 180 201 210 200 203 195 217 242 233 254 258 250 263 250 226 223 202 217 218 226 240 202 261 281 296 304 299 289 279 261 263 248 249
155 163 168 182 162 166 156 141 166 144 141 144 153 165 122 110 85 76 67 47 33 20 31 23 357 340 332 301 248 239 217 207 210 209 195 193 224 226 213 233 252 241 250 264 249 229 226 187 238 238 279 281 272 214 232 269 283 274 279 292 284 263
159 162 163 166 164 151 128 95 213 112 130 95 55 43 72 82 91 94 82 79 48 44 12 83 42 14 320 303 334 331 288 260 257 192 190 187 191 239 214 227 220 249 264 260 275 271 214 262 227 205 243 294 292 271 171 243 256 263 261 246 255 292
158 165 153 159 163 120 114 109 81 94 60 71 99 90 92 91 90 100 80 45 68 39 30 51 93 174 161 32 325 321 346 338 34 270 9 78 96 190 198 171 202 207 224 266 250 130 255 205 184 228 211 228 89 281 274 224 239 277 282 320 316 342
161 160 155 151 153 130 129 134 120 111 106 100 116 133 137 114 106 94 101 96 83 75 71 59 34 16 49 81 323 10 33 50 21 24 93 122 171 207 146 72 165 167 170 192 197 344 136 163 197 264 360 188 189 225 256 2 335 249 354 282 352 53
160 160 153 153 151 152 158 153 156 152 147 150 139 149 141 127 136 118 84 106 99 78 60 42 40 45 42 38 37 142 307 136 98 72 81 80 170 126 162 170 173 89 118 135 102 177 177 235 166 170 150 210 291 293 67 3 335 36 251 163 337 57
163 160 156 157 157 164 163 167 172 169 156 152 145 124 103 113 99 95 106 90 96 94 91 74 54 68 61 61 45 15 30 5 40 40 40 35 6 353 14 21 57 108 105 105 126 138 125 136 231 187 165 167 151 228 221 257 269 352 328 58 100 1
166 162 161 159 161 170 171 168 181 178 160 157 142 124 131 118 105 107 115 123 108 113 106 88 85 85 108 91 49 63 41 37 19 58 80 64 39 33 15 36 26 21 13 40 100 117 122 128 136 135 248 176 215 240 248 235 258 263 278 301 304 298
168 165 161 162 165 173 177 171 181 180 167 153 132 141 142 135 133 125 129 131 106 94 84 71 78 81 74 82 85 64 44 39 28 35 68 76 58 43 39 38 31 22 27 33 23 17 65 141 145 123 205 219 228 231 194 214 256 235 217 273 247 243
170 168 163 164 170 174 179 175 184 182 174 152 150 150 150 138 137 146 132 130 130 124 107 117 103 77 77 78 75 84 78 62 46 38 41 56 64 66 51 46 33 35 36 41 31 29 32 31 16 29 343 343 300 254 288 261 185 238 281 178 272 250
172 167 165 168 173 175 182 179 186 181 176 158 156 156 146 154 148 158 146 149 157 135 133 110 113 105 75 76 70 70 69 73 69 50 62 74 57 70 75 62 57 51 36 28 43 46 37 25 15 35 347 360 360 8 357 340 4 350 358 320 318 296
172 171 169 171 173 176 181 184 186 181 177 164 160 165 157 164 161 164 158 159 153 153 142 132 131 127 120 91 85 79 82 89 75 73 70 68 80 83 70 70 64 57 59 50 48 43 40 36 9 46 23 9 10 0 2 349 14 351 337 334 325 317
173 173 170 172 176 176 180 182 186 181 180 171 172 174 167 169 171 173 167 169 162 166 152 154 154 148 140 152 122 116 117 94 90 66 58 68 65 51 63 76 80 78 58 55 51 39 47 33 23 5 17 24 347 11 22 22 346 352 344 325 312 301
174 175 170 175 176 178 180 181 185 184 183 178 182 179 181 174 176 181 172 169 174 167 163 165 161 167 156 172 165 143 123 105 99 105 97 81 68 76 83 103 87 68 76 76 70 78 73 63 53 33 3 11 15 12 19 1 356 317 322 330 324 328
175 175 173 176 177 179 179 182 183 188 186 188 185 186 189 177 177 186 178 171 184 171 169 172 169 166 164 183 162 166 147 140 140 136 128 124 119 113 88 75 81 72 69 61 58 54 64 49 53 44 28 10 327 64 7 23 347 349 340 337 327 330
180 176 177 178 180 181 181 181 184 188 192 196 191 190 197 186 178 187 181 174 186 180 176 168 167 164 171 178 168 166 169 160 157 155 149 146 154 128 115 105 106 113 99 93 99 84 86 80 55 33 31 0 336 39 6 21 340 24 358 355 331 311
185 179 180 181 182 182 181 184 185 189 194 200 200 201 201 194 182 181 183 182 184 185 178 173 167 167 177 175 173 176 180 170 172 170 169 167 158 135 146 143 118 134 123 113 91 75 51 57 60 23 32 16 354 10 40 354 356 0 352 342 325 326